Tracking 28081 objects as of 27-Sep-2023
HD Live streaming from Space Station
objects crossing your sky now

STARLINK-4254

Track STARLINK-4254 now!
10-day predictions
STARLINK-4254 is classified as:


NORAD ID: 52998
Int'l Code: 2022-076N
Perigee: 546.0 km
Apogee: 547.9 km
Inclination: 53.2 °
Period: 95.4 minutes
Semi major axis: 6917 km
RCS: Unknown
Launch date: July 7, 2022
Source: United States (US)
Launch site: AIR FORCE EASTERN TEST RANGE (AFETR)
Your satellite tracking list
Your tracking list is empty




NASA's NSSDC Master Catalog

Two Line Element Set (TLE):
1 52998U 22076N   23269.84489828 -.00004629  00000-0 -27310-3 0  9992
2 52998  53.2151 151.1485 0001397  94.6205 265.4947 15.08821669 68224
Source of the keplerian elements: AFSPC